AAN107 LERL-LEBA

Flight info

Callsign AAN107
Flight time 0h 41m
Altitude 6500
Route VFR
Aircraft C172/L-SDFG/C

Departure

Time 2026-05-07 12:33
Airport Ciudad Real International Airport (LERL)

Arrival

Time 2026-05-07 13:15
Airport Córdoba Airport (LEBA)
Time Latitude Longitude Altitude Speed Heading
2026-05-07 12:16 38.86607 -3.99233 2122 ft 0 kts 13°
2026-05-07 12:28 38.86607 -3.99231 2122 ft 1 kts 112°
2026-05-07 12:28 38.86600 -3.99231 2122 ft 4 kts 188°
2026-05-07 12:28 38.86546 -3.99244 2122 ft 11 kts 195°
2026-05-07 12:28 38.86498 -3.99228 2123 ft 8 kts 106°
2026-05-07 12:29 38.86439 -3.99190 2122 ft 14 kts 193°
2026-05-07 12:29 38.86327 -3.99215 2122 ft 17 kts 202°
2026-05-07 12:29 38.86281 -3.99236 2123 ft 5 kts 187°
2026-05-07 12:29 38.86264 -3.99238 2123 ft 0 kts 178°
2026-05-07 12:30 38.86262 -3.99238 2125 ft 0 kts 178°
2026-05-07 12:31 38.86259 -3.99238 2125 ft 3 kts 184°
2026-05-07 12:31 38.86197 -3.99242 2123 ft 15 kts 175°
2026-05-07 12:31 38.86103 -3.99229 2122 ft 16 kts 162°
2026-05-07 12:31 38.86023 -3.99109 2122 ft 20 kts 104°
2026-05-07 12:32 38.85963 -3.98780 2124 ft 58 kts 104°
2026-05-07 12:32 38.85849 -3.98209 2235 ft 71 kts 102°
2026-05-07 12:32 38.85721 -3.97590 2439 ft 72 kts 103°
2026-05-07 12:32 38.85576 -3.96949 2656 ft 75 kts 113°
2026-05-07 12:33 38.84616 -3.96900 2997 ft 96 kts 239°
2026-05-07 12:33 38.84664 -3.97768 3155 ft 101 kts 269°
2026-05-07 12:33 38.84375 -3.98512 3293 ft 93 kts 212°
2026-05-07 12:34 38.83854 -3.99069 3416 ft 102 kts 217°
2026-05-07 12:34 38.83295 -3.99651 3473 ft 109 kts 216°
2026-05-07 12:34 38.82693 -4.00269 3472 ft 113 kts 217°
2026-05-07 12:34 38.82068 -4.00910 3472 ft 118 kts 217°
2026-05-07 12:35 38.81415 -4.01562 3473 ft 120 kts 215°
2026-05-07 12:35 38.80757 -4.02229 3459 ft 119 kts 216°
2026-05-07 12:35 38.80128 -4.02870 3462 ft 116 kts 216°
2026-05-07 12:35 38.79494 -4.03522 3469 ft 119 kts 216°
2026-05-07 12:36 38.78850 -4.04184 3465 ft 118 kts 216°
2026-05-07 12:36 38.78222 -4.04853 3466 ft 116 kts 217°
2026-05-07 12:36 38.77596 -4.05503 3466 ft 115 kts 216°
2026-05-07 12:36 38.76970 -4.06154 3466 ft 117 kts 217°
2026-05-07 12:37 38.76342 -4.06815 3465 ft 117 kts 216°
2026-05-07 12:37 38.75713 -4.07466 3471 ft 116 kts 215°
2026-05-07 12:37 38.75085 -4.08122 3468 ft 117 kts 217°
2026-05-07 12:37 38.74454 -4.08770 3466 ft 115 kts 212°
2026-05-07 12:38 38.73810 -4.09363 3516 ft 109 kts 213°
2026-05-07 12:38 38.73215 -4.09910 3655 ft 102 kts 213°
2026-05-07 12:38 38.72655 -4.10434 3798 ft 97 kts 212°
2026-05-07 12:38 38.72118 -4.10942 3950 ft 95 kts 214°
2026-05-07 12:39 38.71575 -4.11433 4097 ft 98 kts 211°
2026-05-07 12:39 38.71025 -4.11963 4233 ft 95 kts 213°
2026-05-07 12:39 38.70483 -4.12471 4415 ft 99 kts 213°
2026-05-07 12:39 38.69937 -4.12986 4521 ft 89 kts 212°
2026-05-07 12:40 38.69492 -4.13410 4654 ft 79 kts 212°
2026-05-07 12:40 38.69044 -4.13844 4739 ft 83 kts 212°
2026-05-07 12:40 38.68530 -4.14327 4833 ft 102 kts 212°
2026-05-07 12:40 38.67923 -4.14881 4932 ft 111 kts 213°
2026-05-07 12:41 38.67298 -4.15443 5052 ft 107 kts 213°
2026-05-07 12:41 38.66709 -4.15979 5182 ft 101 kts 213°
2026-05-07 12:41 38.66154 -4.16491 5312 ft 98 kts 214°
2026-05-07 12:41 38.65591 -4.16993 5434 ft 99 kts 213°
2026-05-07 12:42 38.65010 -4.17481 5565 ft 101 kts 211°
2026-05-07 12:42 38.64402 -4.17957 5688 ft 103 kts 209°
2026-05-07 12:42 38.63786 -4.18414 5807 ft 102 kts 210°
2026-05-07 12:42 38.63173 -4.18868 5940 ft 101 kts 209°
2026-05-07 12:43 38.62563 -4.19324 6068 ft 103 kts 210°
2026-05-07 12:43 38.61942 -4.19786 6207 ft 104 kts 209°
2026-05-07 12:43 38.61305 -4.20257 6333 ft 107 kts 209°
2026-05-07 12:43 38.60665 -4.20724 6448 ft 107 kts 209°
2026-05-07 12:44 38.60018 -4.21206 6535 ft 110 kts 210°
2026-05-07 12:44 38.59342 -4.21701 6533 ft 113 kts 210°
2026-05-07 12:44 38.58660 -4.22203 6535 ft 116 kts 210°
2026-05-07 12:44 38.57947 -4.22682 6537 ft 116 kts 204°
2026-05-07 12:45 38.57201 -4.23075 6538 ft 115 kts 203°
2026-05-07 12:45 38.56470 -4.23457 6531 ft 111 kts 203°
2026-05-07 12:45 38.55764 -4.23855 6535 ft 111 kts 205°
2026-05-07 12:45 38.55043 -4.24255 6531 ft 113 kts 204°
2026-05-07 12:46 38.54322 -4.24655 6523 ft 111 kts 204°
2026-05-07 12:46 38.53624 -4.25041 6530 ft 109 kts 204°
2026-05-07 12:46 38.52929 -4.25436 6530 ft 109 kts 204°
2026-05-07 12:46 38.52240 -4.25824 6516 ft 104 kts 204°
2026-05-07 12:47 38.51618 -4.26173 6530 ft 96 kts 204°
2026-05-07 12:47 38.50975 -4.26545 6536 ft 106 kts 204°
2026-05-07 12:47 38.50297 -4.26940 6537 ft 107 kts 205°
2026-05-07 12:47 38.49609 -4.27333 6529 ft 108 kts 204°
2026-05-07 12:48 38.48927 -4.27724 6537 ft 109 kts 204°
2026-05-07 12:48 38.48224 -4.28134 6539 ft 113 kts 205°
2026-05-07 12:48 38.47498 -4.28560 6538 ft 116 kts 204°
2026-05-07 12:48 38.46776 -4.28985 6530 ft 112 kts 204°
2026-05-07 12:49 38.46053 -4.29414 6528 ft 118 kts 204°
2026-05-07 12:49 38.45304 -4.29841 6520 ft 117 kts 202°
2026-05-07 12:49 38.44551 -4.30182 6522 ft 116 kts 200°
2026-05-07 12:49 38.43799 -4.30507 6519 ft 112 kts 199°
2026-05-07 12:50 38.43068 -4.30828 6521 ft 109 kts 200°
2026-05-07 12:50 38.42352 -4.31142 6519 ft 109 kts 200°
2026-05-07 12:50 38.41638 -4.31459 6519 ft 108 kts 200°
2026-05-07 12:50 38.40948 -4.31770 6537 ft 105 kts 200°
2026-05-07 12:51 38.40234 -4.32100 6537 ft 112 kts 200°
2026-05-07 12:51 38.39481 -4.32448 6531 ft 117 kts 200°
2026-05-07 12:51 38.38718 -4.32793 6531 ft 114 kts 199°
2026-05-07 12:51 38.37964 -4.33112 6528 ft 114 kts 198°
2026-05-07 12:52 38.37219 -4.33396 6525 ft 112 kts 197°
2026-05-07 12:52 38.36466 -4.33682 6526 ft 112 kts 197°
2026-05-07 12:52 38.35726 -4.33963 6525 ft 110 kts 198°
2026-05-07 12:52 38.34985 -4.34222 6530 ft 111 kts 195°
2026-05-07 12:53 38.34229 -4.34471 6523 ft 111 kts 195°
2026-05-07 12:53 38.33483 -4.34711 6532 ft 110 kts 195°
2026-05-07 12:53 38.32740 -4.34954 6525 ft 109 kts 196°
2026-05-07 12:53 38.32012 -4.35196 6516 ft 107 kts 196°
2026-05-07 12:54 38.31299 -4.35430 6521 ft 105 kts 195°
2026-05-07 12:54 38.30586 -4.35665 6521 ft 106 kts 195°
2026-05-07 12:54 38.29873 -4.35905 6518 ft 105 kts 196°
2026-05-07 12:54 38.29175 -4.36137 6524 ft 103 kts 195°
2026-05-07 12:55 38.28481 -4.36383 6525 ft 103 kts 195°
2026-05-07 12:55 38.27776 -4.36624 6527 ft 106 kts 196°
2026-05-07 12:55 38.27060 -4.36868 6532 ft 107 kts 196°
2026-05-07 12:55 38.26332 -4.37111 6524 ft 108 kts 195°
2026-05-07 12:56 38.25608 -4.37374 6528 ft 108 kts 199°
2026-05-07 12:56 38.25137 -4.37572 6530 ft 109 kts 199°
2026-05-07 12:56 38.24413 -4.37877 6523 ft 111 kts 199°
2026-05-07 12:56 38.23646 -4.38207 6380 ft 121 kts 199°
2026-05-07 12:57 38.22560 -4.38664 6189 ft 125 kts 198°
2026-05-07 12:57 38.21711 -4.39002 6039 ft 130 kts 197°
2026-05-07 12:57 38.21142 -4.39215 5930 ft 128 kts 197°
2026-05-07 12:57 38.20291 -4.39539 5784 ft 129 kts 198°
2026-05-07 12:58 38.19434 -4.39866 5630 ft 128 kts 197°
2026-05-07 12:58 38.18585 -4.40194 5476 ft 127 kts 197°
2026-05-07 12:58 38.17746 -4.40519 5322 ft 126 kts 197°
2026-05-07 12:58 38.16907 -4.40849 5181 ft 127 kts 197°
2026-05-07 12:59 38.16066 -4.41190 5025 ft 126 kts 198°
2026-05-07 12:59 38.15236 -4.41529 4882 ft 126 kts 198°
2026-05-07 12:59 38.14400 -4.41868 4727 ft 125 kts 198°
2026-05-07 12:59 38.13572 -4.42205 4586 ft 124 kts 198°
2026-05-07 13:00 38.12755 -4.42541 4433 ft 125 kts 198°
2026-05-07 13:00 38.11915 -4.42877 4282 ft 128 kts 198°
2026-05-07 13:00 38.11067 -4.43220 4120 ft 126 kts 197°
2026-05-07 13:00 38.10238 -4.43569 3973 ft 125 kts 198°
2026-05-07 13:01 38.09422 -4.43906 3815 ft 121 kts 198°
2026-05-07 13:01 38.08611 -4.44249 3680 ft 124 kts 198°
2026-05-07 13:01 38.07793 -4.44571 3522 ft 123 kts 197°
2026-05-07 13:01 38.06987 -4.44897 3485 ft 118 kts 199°
2026-05-07 13:02 38.06214 -4.45198 3472 ft 111 kts 198°
2026-05-07 13:02 38.05492 -4.45478 3488 ft 109 kts 198°
2026-05-07 13:02 38.04769 -4.45773 3485 ft 110 kts 198°
2026-05-07 13:02 38.04145 -4.46272 3489 ft 111 kts 230°
2026-05-07 13:03 38.03688 -4.47056 3493 ft 111 kts 230°
2026-05-07 13:03 38.03201 -4.47828 3483 ft 110 kts 228°
2026-05-07 13:03 38.02728 -4.48568 3493 ft 107 kts 229°
2026-05-07 13:03 38.02251 -4.49305 3493 ft 109 kts 229°
2026-05-07 13:04 38.01775 -4.50039 3490 ft 108 kts 227°
2026-05-07 13:04 38.01285 -4.50730 3500 ft 107 kts 225°
2026-05-07 13:04 38.00789 -4.51443 3494 ft 107 kts 224°
2026-05-07 13:04 38.00305 -4.52148 3501 ft 107 kts 225°
2026-05-07 13:05 37.99761 -4.52829 3481 ft 110 kts 220°
2026-05-07 13:05 37.99234 -4.53478 3490 ft 104 kts 221°
2026-05-07 13:05 37.98703 -4.54107 3477 ft 106 kts 221°
2026-05-07 13:05 37.98185 -4.54752 3490 ft 104 kts 220°
2026-05-07 13:06 37.97654 -4.55390 3491 ft 107 kts 220°
2026-05-07 13:06 37.97106 -4.56054 3499 ft 112 kts 221°
2026-05-07 13:06 37.96534 -4.56728 3499 ft 113 kts 220°
2026-05-07 13:06 37.95998 -4.57462 3496 ft 116 kts 242°
2026-05-07 13:07 37.95889 -4.58477 3492 ft 118 kts 258°
2026-05-07 13:07 37.95700 -4.59496 3501 ft 119 kts 251°
2026-05-07 13:07 37.95411 -4.60440 3484 ft 114 kts 241°
2026-05-07 13:07 37.95088 -4.61323 3506 ft 109 kts 240°
2026-05-07 13:08 37.94658 -4.62163 3486 ft 117 kts 233°
2026-05-07 13:08 37.94207 -4.63039 3354 ft 123 kts 233°
2026-05-07 13:08 37.93710 -4.63972 3133 ft 129 kts 232°
2026-05-07 13:08 37.93210 -4.64912 2919 ft 129 kts 233°
2026-05-07 13:09 37.92709 -4.65857 2694 ft 131 kts 233°
2026-05-07 13:09 37.92225 -4.66818 2524 ft 127 kts 238°
2026-05-07 13:09 37.91827 -4.67785 2383 ft 123 kts 238°
2026-05-07 13:09 37.91352 -4.68664 2212 ft 118 kts 229°
2026-05-07 13:10 37.90828 -4.69486 2189 ft 118 kts 227°
2026-05-07 13:10 37.90331 -4.70295 2179 ft 114 kts 229°
2026-05-07 13:10 37.89850 -4.71063 2196 ft 111 kts 229°
2026-05-07 13:10 37.89359 -4.71834 2195 ft 113 kts 228°
2026-05-07 13:11 37.88863 -4.72605 2185 ft 112 kts 228°
2026-05-07 13:11 37.88361 -4.73364 2194 ft 114 kts 229°
2026-05-07 13:11 37.87870 -4.74130 2195 ft 111 kts 228°
2026-05-07 13:11 37.87376 -4.74905 2204 ft 117 kts 229°
2026-05-07 13:12 37.86870 -4.75697 2211 ft 114 kts 228°
2026-05-07 13:12 37.86365 -4.76497 2190 ft 115 kts 230°
2026-05-07 13:12 37.85985 -4.77362 2200 ft 115 kts 254°
2026-05-07 13:12 37.85851 -4.78370 2201 ft 112 kts 255°
2026-05-07 13:13 37.85830 -4.79344 2036 ft 118 kts 278°
2026-05-07 13:13 37.86048 -4.80230 2016 ft 94 kts 279°
2026-05-07 13:13 37.86247 -4.81024 1869 ft 96 kts 279°
2026-05-07 13:13 37.86401 -4.81830 1625 ft 93 kts 270°
2026-05-07 13:14 37.86335 -4.82639 1310 ft 92 kts 258°
2026-05-07 13:14 37.86118 -4.83405 981 ft 92 kts 240°
2026-05-07 13:14 37.85636 -4.83902 668 ft 88 kts 208°
2026-05-07 13:14 37.85160 -4.84217 423 ft 70 kts 211°
2026-05-07 13:15 37.84771 -4.84478 297 ft 49 kts 211°
2026-05-07 13:15 37.84656 -4.84569 297 ft 8 kts 206°
2026-05-07 13:15 37.84614 -4.84595 298 ft 6 kts 205°
2026-05-07 13:15 37.84594 -4.84601 296 ft 2 kts 201°
2026-05-07 13:16 37.84588 -4.84607 296 ft 0 kts 218°
2026-05-07 13:16 37.84580 -4.84612 298 ft 6 kts 210°
2026-05-07 13:16 37.84533 -4.84609 297 ft 8 kts 124°
2026-05-07 13:16 37.84497 -4.84528 298 ft 11 kts 114°
2026-05-07 13:17 37.84494 -4.84517 299 ft 0 kts 110°
2026-05-07 13:17 37.84493 -4.84516 299 ft 1 kts 124°
2026-05-07 13:17 37.84469 -4.84468 299 ft 10 kts 118°
2026-05-07 13:17 37.84410 -4.84464 301 ft 9 kts 209°
2026-05-07 13:18 37.84361 -4.84472 301 ft 2 kts 75°
2026-05-07 13:18 37.84378 -4.84457 300 ft 1 kts 25°
2026-05-07 13:18 37.84379 -4.84456 300 ft 0 kts 23°
2026-05-07 13:20 37.84378 -4.84456 301 ft 0 kts 23°